Year,Month,Day,Hour,Minute,Value (Times are PST for temperature in C)
2015,08,16,00,00,13.80
2015,08,16,00,01,13.80
2015,08,16,00,02,13.80
2015,08,16,00,03,13.80
2015,08,16,00,04,13.80
2015,08,16,00,05,13.80
2015,08,16,00,06,13.80
2015,08,16,00,07,13.90
2015,08,16,00,08,13.80
2015,08,16,00,09,13.80
2015,08,16,00,10,13.80
2015,08,16,00,11,13.80
2015,08,16,00,12,13.80
2015,08,16,00,13,13.80
2015,08,16,00,14,13.80
2015,08,16,00,15,13.80
2015,08,16,00,16,13.80
2015,08,16,00,17,13.70
2015,08,16,00,18,13.70
2015,08,16,00,19,13.70
2015,08,16,00,20,13.70
2015,08,16,00,21,13.70
2015,08,16,00,22,13.70
2015,08,16,00,23,13.70
2015,08,16,00,24,13.60
2015,08,16,00,25,13.60
2015,08,16,00,26,13.60
2015,08,16,00,27,13.60
2015,08,16,00,28,13.60
2015,08,16,00,29,13.60
2015,08,16,00,30,13.60
2015,08,16,00,31,13.60
2015,08,16,00,32,13.60
2015,08,16,00,33,13.60
2015,08,16,00,34,13.60
2015,08,16,00,35,13.60
2015,08,16,00,36,13.60
2015,08,16,00,37,13.60
2015,08,16,00,38,13.60
2015,08,16,00,39,13.60
2015,08,16,00,40,13.50
2015,08,16,00,41,13.50
2015,08,16,00,42,13.50
2015,08,16,00,43,13.50
2015,08,16,00,44,13.50
2015,08,16,00,45,13.50
2015,08,16,00,46,13.50
2015,08,16,00,47,13.50
2015,08,16,00,48,13.40
2015,08,16,00,49,13.40
2015,08,16,00,50,13.40
2015,08,16,00,51,13.40
2015,08,16,00,52,13.40
2015,08,16,00,53,13.40
2015,08,16,00,54,13.40
2015,08,16,00,55,13.40
2015,08,16,00,56,13.40
2015,08,16,00,57,13.40
2015,08,16,00,58,13.40
2015,08,16,00,59,13.40
2015,08,16,01,00,13.40
2015,08,16,01,01,13.40
2015,08,16,01,02,13.40
2015,08,16,01,03,13.40
2015,08,16,01,04,13.40
2015,08,16,01,05,13.40
2015,08,16,01,06,13.40
2015,08,16,01,07,13.40
2015,08,16,01,08,13.40
2015,08,16,01,09,13.40
2015,08,16,01,10,13.40
2015,08,16,01,11,13.30
2015,08,16,01,12,13.30
2015,08,16,01,13,13.30
2015,08,16,01,14,13.30
2015,08,16,01,15,13.30
2015,08,16,01,16,13.30
2015,08,16,01,17,13.20
2015,08,16,01,18,13.20
2015,08,16,01,19,13.20
2015,08,16,01,20,13.20
2015,08,16,01,21,13.20
2015,08,16,01,22,13.10
2015,08,16,01,23,13.10
2015,08,16,01,24,13.10
2015,08,16,01,25,13.10
2015,08,16,01,26,13.10
2015,08,16,01,27,13.10
2015,08,16,01,28,13.10
2015,08,16,01,29,13.10
2015,08,16,01,30,13.10
2015,08,16,01,31,13.10
2015,08,16,01,32,13.10
2015,08,16,01,33,13.00
2015,08,16,01,34,13.00
2015,08,16,01,35,13.00
2015,08,16,01,36,13.00
2015,08,16,01,37,13.00
2015,08,16,01,38,13.00
2015,08,16,01,39,13.00
2015,08,16,01,40,13.00
2015,08,16,01,41,13.00
2015,08,16,01,42,13.00
2015,08,16,01,43,13.00
2015,08,16,01,44,13.00
2015,08,16,01,45,13.00
2015,08,16,01,46,13.00
2015,08,16,01,47,13.00
2015,08,16,01,48,13.00
2015,08,16,01,49,13.00
2015,08,16,01,50,12.90
2015,08,16,01,51,12.90
2015,08,16,01,52,12.90
2015,08,16,01,53,12.90
2015,08,16,01,54,12.90
2015,08,16,01,55,12.90
2015,08,16,01,56,12.90
2015,08,16,01,57,12.90
2015,08,16,01,58,12.90
2015,08,16,01,59,12.90
2015,08,16,02,00,12.90
2015,08,16,02,01,12.90
2015,08,16,02,02,12.90
2015,08,16,02,03,12.90
2015,08,16,02,04,12.90
2015,08,16,02,05,12.90
2015,08,16,02,06,12.90
2015,08,16,02,07,12.90
2015,08,16,02,08,12.90
2015,08,16,02,09,12.90
2015,08,16,02,10,12.90
2015,08,16,02,11,12.90
2015,08,16,02,12,12.90
2015,08,16,02,13,12.90
2015,08,16,02,14,12.80
2015,08,16,02,15,12.80
2015,08,16,02,16,12.80
2015,08,16,02,17,12.80
2015,08,16,02,18,12.80
2015,08,16,02,19,12.80
2015,08,16,02,20,12.80
2015,08,16,02,21,12.80
2015,08,16,02,22,12.80
2015,08,16,02,23,12.80
2015,08,16,02,24,12.80
2015,08,16,02,25,12.80
2015,08,16,02,26,12.80
2015,08,16,02,27,12.80
2015,08,16,02,28,12.70
2015,08,16,02,29,12.70
2015,08,16,02,30,12.70
2015,08,16,02,31,12.70
2015,08,16,02,32,12.70
2015,08,16,02,33,12.70
2015,08,16,02,34,12.70
2015,08,16,02,35,12.70
2015,08,16,02,36,12.60
2015,08,16,02,37,12.60
2015,08,16,02,38,12.60
2015,08,16,02,39,12.50
2015,08,16,02,40,12.50
2015,08,16,02,41,12.40
2015,08,16,02,42,12.40
2015,08,16,02,43,12.40
2015,08,16,02,44,12.40
2015,08,16,02,45,12.40
2015,08,16,02,46,12.40
2015,08,16,02,47,12.40
2015,08,16,02,48,12.40
2015,08,16,02,49,12.30
2015,08,16,02,50,12.30
2015,08,16,02,51,12.30
2015,08,16,02,52,12.30
2015,08,16,02,53,12.30
2015,08,16,02,54,12.30
2015,08,16,02,55,12.30
2015,08,16,02,56,12.30
2015,08,16,02,57,12.30
2015,08,16,02,58,12.20
2015,08,16,02,59,12.20
2015,08,16,03,00,12.20
2015,08,16,03,01,12.20
2015,08,16,03,02,12.20
2015,08,16,04,02,11.90
2015,08,16,04,03,11.90
2015,08,16,04,04,11.80
2015,08,16,04,05,11.80
2015,08,16,04,06,11.80
2015,08,16,04,07,11.80
2015,08,16,04,08,11.80
2015,08,16,04,09,11.80
2015,08,16,04,10,11.70
2015,08,16,04,11,11.70
2015,08,16,04,12,11.70
2015,08,16,04,13,11.70
2015,08,16,04,14,11.70
2015,08,16,04,15,11.70
2015,08,16,04,16,11.60
2015,08,16,04,17,11.60
2015,08,16,04,18,11.60
2015,08,16,04,19,11.60
2015,08,16,04,20,11.60
2015,08,16,04,21,11.60
2015,08,16,04,22,11.60
2015,08,16,04,23,11.50
2015,08,16,04,24,11.50
2015,08,16,04,25,11.50
2015,08,16,04,26,11.50
2015,08,16,04,27,11.50
2015,08,16,04,28,11.40
2015,08,16,04,29,11.40
2015,08,16,04,30,11.40
2015,08,16,04,31,11.40
2015,08,16,04,32,11.40
2015,08,16,04,33,11.40
2015,08,16,04,34,11.40
2015,08,16,04,35,11.30
2015,08,16,04,36,11.30
2015,08,16,04,37,11.30
2015,08,16,04,38,11.30
2015,08,16,04,39,11.30
2015,08,16,04,40,11.30
2015,08,16,04,41,11.30
2015,08,16,04,42,11.30
2015,08,16,04,43,11.30
2015,08,16,04,44,11.30
2015,08,16,04,45,11.30
2015,08,16,04,46,11.30
2015,08,16,04,47,11.30
2015,08,16,04,48,11.20
2015,08,16,04,49,11.20
2015,08,16,04,50,11.20
2015,08,16,04,51,11.20
2015,08,16,04,52,11.20
2015,08,16,04,53,11.20
2015,08,16,04,54,11.20
2015,08,16,04,55,11.20
2015,08,16,04,56,11.20
2015,08,16,04,57,11.20
2015,08,16,04,58,11.20
2015,08,16,04,59,11.10
2015,08,16,05,00,11.10
2015,08,16,05,01,11.10
2015,08,16,05,02,11.10
2015,08,16,05,03,11.10
2015,08,16,05,04,11.10
2015,08,16,05,05,11.10
2015,08,16,05,06,11.10
2015,08,16,05,07,11.10
2015,08,16,05,08,11.10
2015,08,16,05,09,11.10
2015,08,16,05,10,11.00
2015,08,16,05,11,11.00
2015,08,16,05,12,11.00
2015,08,16,05,13,11.00
2015,08,16,05,14,10.90
2015,08,16,05,15,10.90
2015,08,16,05,16,10.90
2015,08,16,05,17,10.90
2015,08,16,05,18,10.90
2015,08,16,05,19,10.90
2015,08,16,05,20,10.90
2015,08,16,05,21,10.90
2015,08,16,05,22,10.90
2015,08,16,05,23,10.90
2015,08,16,05,24,10.80
2015,08,16,05,25,10.80
2015,08,16,05,26,10.80
2015,08,16,05,27,10.80
2015,08,16,05,28,10.80
2015,08,16,05,29,10.80
2015,08,16,05,30,10.80
2015,08,16,05,31,10.80
2015,08,16,05,32,10.80
2015,08,16,05,33,10.80
2015,08,16,05,34,10.80
2015,08,16,05,35,10.80
2015,08,16,05,36,10.80
2015,08,16,05,37,10.80
2015,08,16,05,38,10.80
2015,08,16,05,39,10.80
2015,08,16,05,40,10.80
2015,08,16,05,41,10.70
2015,08,16,05,42,10.70
2015,08,16,05,43,10.80
2015,08,16,05,44,10.80
2015,08,16,05,45,10.80
2015,08,16,05,46,10.80
2015,08,16,05,47,10.80
2015,08,16,05,48,10.80
2015,08,16,05,49,10.80
2015,08,16,05,50,10.80
2015,08,16,05,51,10.80
2015,08,16,05,52,10.80
2015,08,16,05,53,10.80
2015,08,16,05,54,10.80
2015,08,16,05,55,10.80
2015,08,16,05,56,10.80
2015,08,16,05,57,10.80
2015,08,16,05,58,10.80
2015,08,16,05,59,10.90
2015,08,16,06,00,10.90
2015,08,16,06,01,10.90
2015,08,16,06,02,10.90
2015,08,16,06,03,10.90
2015,08,16,06,04,10.90
2015,08,16,06,05,10.90
2015,08,16,06,06,10.90
2015,08,16,06,07,10.90
2015,08,16,06,08,10.90
2015,08,16,06,09,10.90
2015,08,16,06,10,10.90
2015,08,16,06,11,10.90
2015,08,16,06,12,10.90
2015,08,16,06,13,10.90
2015,08,16,06,14,10.90
2015,08,16,06,15,10.80
2015,08,16,06,16,10.80
2015,08,16,06,17,10.80
2015,08,16,06,18,10.80
2015,08,16,06,19,10.80
2015,08,16,06,20,10.80
2015,08,16,06,21,10.80
2015,08,16,06,22,10.80
2015,08,16,06,23,10.80
2015,08,16,06,24,10.80
2015,08,16,06,25,10.80
2015,08,16,06,26,10.80
2015,08,16,06,27,10.80
2015,08,16,06,28,10.80
2015,08,16,06,29,10.70
2015,08,16,06,30,10.70
2015,08,16,06,31,10.70
2015,08,16,06,32,10.70
2015,08,16,06,33,10.70
2015,08,16,06,34,10.70
2015,08,16,06,35,10.70
2015,08,16,06,36,10.70
2015,08,16,06,37,10.70
2015,08,16,06,38,10.70
2015,08,16,06,39,10.70
2015,08,16,06,40,10.70
2015,08,16,06,41,10.70
2015,08,16,06,42,10.70
2015,08,16,06,43,10.70
2015,08,16,06,44,10.70
2015,08,16,06,45,10.80
2015,08,16,06,46,10.80
2015,08,16,06,47,10.80
2015,08,16,06,48,10.80
2015,08,16,06,49,10.80
2015,08,16,06,50,10.80
2015,08,16,06,51,10.80
2015,08,16,06,52,10.80
2015,08,16,06,53,10.80
2015,08,16,06,54,10.80
2015,08,16,06,55,10.80
2015,08,16,06,56,10.80
2015,08,16,06,57,10.80
2015,08,16,06,58,10.80
2015,08,16,06,59,10.80
2015,08,16,07,00,10.80
2015,08,16,07,01,10.80
2015,08,16,07,02,10.80
2015,08,16,07,03,10.80
2015,08,16,07,04,10.80
2015,08,16,07,05,10.80
2015,08,16,07,06,10.80
2015,08,16,07,07,10.80
2015,08,16,07,08,10.80
2015,08,16,07,09,10.80
2015,08,16,07,10,10.80
2015,08,16,07,11,10.80
2015,08,16,07,12,10.80
2015,08,16,07,13,10.80
2015,08,16,07,14,10.80
2015,08,16,07,15,10.80
2015,08,16,07,16,10.80
2015,08,16,07,17,10.90
2015,08,16,07,18,10.90
2015,08,16,07,19,10.90
2015,08,16,07,20,10.90
2015,08,16,07,21,10.90
2015,08,16,07,22,10.90
2015,08,16,07,23,11.00
2015,08,16,07,24,11.00
2015,08,16,07,25,11.10
2015,08,16,07,26,11.10
2015,08,16,07,27,11.10
2015,08,16,07,28,11.20
2015,08,16,07,29,11.20
2015,08,16,07,30,11.20
2015,08,16,07,31,11.20
2015,08,16,07,32,11.30
2015,08,16,07,33,11.30
2015,08,16,07,34,11.40
2015,08,16,07,35,11.40
2015,08,16,07,36,11.50
2015,08,16,07,37,11.60
2015,08,16,07,38,11.70
2015,08,16,07,39,11.80
2015,08,16,07,40,11.80
2015,08,16,07,41,11.90
2015,08,16,07,42,11.90
2015,08,16,07,43,12.00
2015,08,16,07,44,12.10
2015,08,16,07,45,12.10
2015,08,16,07,46,12.20
2015,08,16,07,47,12.30
2015,08,16,07,48,12.30
2015,08,16,07,49,12.40
2015,08,16,07,50,12.50
2015,08,16,07,51,12.50
2015,08,16,07,52,12.50
2015,08,16,07,53,12.60
2015,08,16,07,54,12.60
2015,08,16,07,55,12.70
2015,08,16,07,56,12.70
2015,08,16,07,57,12.80
2015,08,16,07,58,12.90
2015,08,16,07,59,13.00
2015,08,16,08,00,13.00
2015,08,16,08,01,13.10
2015,08,16,08,02,13.20
2015,08,16,08,03,13.20
2015,08,16,08,04,13.20
2015,08,16,08,05,13.30
2015,08,16,08,06,13.30
2015,08,16,08,07,13.40
2015,08,16,08,08,13.40
2015,08,16,08,09,13.50
2015,08,16,08,10,13.50
2015,08,16,08,11,13.60
2015,08,16,08,12,13.70
2015,08,16,08,13,13.70
2015,08,16,08,14,13.80
2015,08,16,08,15,13.90
2015,08,16,08,16,14.00
2015,08,16,08,17,14.00
2015,08,16,08,18,14.10
2015,08,16,08,19,14.10
2015,08,16,08,20,14.10
2015,08,16,08,21,14.20
2015,08,16,08,22,14.20
2015,08,16,08,23,14.20
2015,08,16,08,24,14.30
2015,08,16,08,25,14.40
2015,08,16,08,26,14.40
2015,08,16,08,27,14.50
2015,08,16,08,28,14.50
2015,08,16,08,29,14.60
2015,08,16,08,30,14.60
2015,08,16,08,31,14.70
2015,08,16,08,32,14.70
2015,08,16,08,33,14.80
2015,08,16,08,34,14.80
2015,08,16,08,35,14.80
2015,08,16,08,36,14.80
2015,08,16,08,37,14.90
2015,08,16,08,38,14.90
2015,08,16,08,39,14.90
2015,08,16,08,40,15.00
2015,08,16,08,41,15.00
2015,08,16,08,42,15.10
2015,08,16,08,43,15.10
2015,08,16,08,44,15.10
2015,08,16,08,45,15.10
2015,08,16,08,46,15.20
2015,08,16,08,47,15.20
2015,08,16,08,48,15.20
2015,08,16,08,49,15.30
2015,08,16,08,50,15.30
2015,08,16,08,51,15.30
2015,08,16,08,52,15.30
2015,08,16,08,53,15.30
2015,08,16,08,54,15.40
2015,08,16,08,55,15.40
2015,08,16,08,56,15.50
2015,08,16,08,57,15.50
2015,08,16,08,58,15.50
2015,08,16,08,59,15.50
2015,08,16,09,00,15.50
2015,08,16,09,01,15.60
2015,08,16,09,02,15.60
2015,08,16,09,03,15.70
2015,08,16,09,04,15.80
2015,08,16,09,05,15.80
2015,08,16,09,06,15.90
2015,08,16,09,07,16.00
2015,08,16,09,08,16.00
2015,08,16,09,09,16.00
2015,08,16,09,10,16.00
2015,08,16,09,11,16.10
2015,08,16,09,12,16.10
2015,08,16,09,13,16.10
2015,08,16,09,14,16.20
2015,08,16,09,15,16.20
2015,08,16,09,16,16.30
2015,08,16,09,17,16.30
2015,08,16,09,18,16.30
2015,08,16,09,19,16.20
2015,08,16,09,20,16.20
2015,08,16,09,21,16.20
2015,08,16,09,22,16.20
2015,08,16,09,23,16.20
2015,08,16,09,24,16.20
2015,08,16,09,25,16.20
2015,08,16,09,26,16.30
2015,08,16,09,27,16.30
2015,08,16,09,28,16.30
2015,08,16,09,29,16.40
2015,08,16,09,30,16.40
2015,08,16,09,31,16.40
2015,08,16,09,32,16.40
2015,08,16,09,33,16.50
2015,08,16,09,34,16.50
2015,08,16,09,35,16.60
2015,08,16,09,36,16.60
2015,08,16,09,37,16.60
2015,08,16,09,38,16.60
2015,08,16,09,39,16.50
2015,08,16,09,40,16.60
2015,08,16,09,41,16.50
2015,08,16,09,42,16.50
2015,08,16,09,43,16.50
2015,08,16,09,44,16.60
2015,08,16,09,45,16.70
2015,08,16,09,46,16.70
2015,08,16,09,47,16.70
2015,08,16,09,48,16.80
2015,08,16,09,49,16.80
2015,08,16,09,50,16.80
2015,08,16,09,51,16.90
2015,08,16,09,52,16.90
2015,08,16,09,53,17.00
2015,08,16,09,54,17.00
2015,08,16,09,55,17.00
2015,08,16,09,56,17.10
2015,08,16,09,57,17.10
2015,08,16,09,58,17.10
2015,08,16,09,59,17.20
2015,08,16,10,00,17.30
2015,08,16,10,01,17.30
2015,08,16,10,02,17.30
2015,08,16,10,03,17.40
2015,08,16,10,04,17.50
2015,08,16,10,05,17.60
2015,08,16,10,06,17.70
2015,08,16,10,07,17.70
2015,08,16,10,08,17.70
2015,08,16,10,09,17.70
2015,08,16,10,10,17.70
2015,08,16,10,11,17.70
2015,08,16,10,12,17.70
2015,08,16,10,13,17.80
2015,08,16,10,14,17.80
2015,08,16,10,15,17.90
2015,08,16,10,16,17.90
2015,08,16,10,17,18.00
2015,08,16,10,18,18.00
2015,08,16,10,19,18.00
2015,08,16,10,20,17.90
2015,08,16,10,21,17.90
2015,08,16,10,22,18.00
2015,08,16,10,23,18.00
2015,08,16,10,24,18.10
2015,08,16,10,25,18.10
2015,08,16,10,26,18.10
2015,08,16,10,27,18.00
2015,08,16,10,28,18.10
2015,08,16,10,29,18.10
2015,08,16,10,30,18.20
2015,08,16,10,31,18.20
2015,08,16,10,32,18.30
2015,08,16,10,33,18.30
2015,08,16,10,34,18.30
2015,08,16,10,35,18.30
2015,08,16,10,36,18.30
2015,08,16,10,37,18.30
2015,08,16,10,38,18.40
2015,08,16,10,39,18.50
2015,08,16,10,40,18.50
2015,08,16,10,41,18.60
2015,08,16,10,42,18.70
2015,08,16,10,43,18.70
2015,08,16,10,44,18.70
2015,08,16,10,45,18.80
2015,08,16,10,46,18.80
2015,08,16,10,47,18.90
2015,08,16,10,48,18.90
2015,08,16,10,49,18.90
2015,08,16,10,50,19.00
2015,08,16,10,51,19.10
2015,08,16,10,52,19.10
2015,08,16,10,53,19.20
2015,08,16,10,54,19.30
2015,08,16,10,55,19.40
2015,08,16,10,56,19.40
2015,08,16,10,57,19.40
2015,08,16,10,58,19.40
2015,08,16,10,59,19.30
2015,08,16,11,00,19.20
2015,08,16,11,01,19.20
2015,08,16,11,02,19.20
2015,08,16,11,03,19.20
2015,08,16,11,04,19.30
2015,08,16,11,05,19.40
2015,08,16,11,06,19.40
2015,08,16,11,07,19.40
2015,08,16,11,08,19.40
2015,08,16,11,09,19.40
2015,08,16,11,10,19.30
2015,08,16,11,11,19.30
2015,08,16,11,12,19.20
2015,08,16,11,13,19.20
2015,08,16,11,14,19.20
2015,08,16,11,15,19.30
2015,08,16,11,16,19.40
2015,08,16,11,17,19.40
2015,08,16,11,18,19.40
2015,08,16,11,19,19.50
2015,08,16,11,20,19.50
2015,08,16,11,21,19.60
2015,08,16,11,22,19.60
2015,08,16,11,23,19.60
2015,08,16,11,24,19.70
2015,08,16,11,25,19.70
2015,08,16,11,26,19.70
2015,08,16,11,27,19.70
2015,08,16,11,28,19.70
2015,08,16,11,29,19.70
2015,08,16,11,30,19.70
2015,08,16,11,31,19.60
2015,08,16,11,32,19.70
2015,08,16,11,33,19.70
2015,08,16,11,34,19.70
2015,08,16,11,35,19.80
2015,08,16,11,36,19.80
2015,08,16,11,37,19.80
2015,08,16,11,38,19.90
2015,08,16,11,39,19.90
2015,08,16,11,40,19.90
2015,08,16,11,41,19.90
2015,08,16,11,42,19.90
2015,08,16,11,43,19.90
2015,08,16,11,44,19.90
2015,08,16,11,45,19.90
2015,08,16,11,46,19.80
2015,08,16,11,47,19.80
2015,08,16,11,48,19.80
2015,08,16,11,49,19.80
2015,08,16,11,50,19.80
2015,08,16,11,51,19.70
2015,08,16,11,52,19.70
2015,08,16,11,53,19.60
2015,08,16,11,54,19.60
2015,08,16,11,55,19.60
2015,08,16,11,56,19.60
2015,08,16,11,57,19.60
2015,08,16,11,58,19.60
2015,08,16,11,59,19.70
2015,08,16,12,00,19.80
2015,08,16,12,01,19.80
2015,08,16,12,02,19.80
2015,08,16,12,03,19.90
2015,08,16,12,04,19.90
2015,08,16,12,05,19.90
2015,08,16,12,06,19.90
2015,08,16,12,07,19.90
2015,08,16,12,08,19.90
2015,08,16,12,09,19.90
2015,08,16,12,10,19.90
2015,08,16,12,11,19.80
2015,08,16,12,12,19.90
2015,08,16,12,13,19.90
2015,08,16,12,14,20.00
2015,08,16,12,15,20.00
2015,08,16,12,16,19.90
2015,08,16,12,17,19.90
2015,08,16,12,18,20.00
2015,08,16,12,19,20.00
2015,08,16,12,20,20.10
2015,08,16,12,21,20.10
2015,08,16,12,22,20.10
2015,08,16,12,23,20.20
2015,08,16,12,24,20.20
2015,08,16,12,25,20.20
2015,08,16,12,26,20.20
2015,08,16,12,27,20.30
2015,08,16,12,28,20.30
2015,08,16,12,29,20.30
2015,08,16,12,30,20.30
2015,08,16,12,31,20.20
2015,08,16,12,32,20.20
2015,08,16,12,33,20.30
2015,08,16,12,34,20.30
2015,08,16,12,35,20.40
2015,08,16,12,36,20.50
2015,08,16,12,37,20.60
2015,08,16,12,38,20.60
2015,08,16,12,39,20.60
2015,08,16,12,40,20.60
2015,08,16,12,41,20.60
2015,08,16,12,42,20.60
2015,08,16,12,43,20.70
2015,08,16,12,44,20.70
2015,08,16,12,45,20.70
2015,08,16,12,46,20.70
2015,08,16,12,47,20.70
2015,08,16,12,48,20.80
2015,08,16,12,49,20.80
2015,08,16,12,50,20.80
2015,08,16,12,51,20.80
2015,08,16,12,52,20.90
2015,08,16,12,53,20.90
2015,08,16,12,54,20.80
2015,08,16,12,55,20.80
2015,08,16,12,56,20.80
2015,08,16,12,57,20.90
2015,08,16,12,58,21.00
2015,08,16,12,59,21.00
2015,08,16,13,00,21.00
2015,08,16,13,01,21.10
2015,08,16,13,02,21.10
2015,08,16,13,03,21.20
2015,08,16,13,04,21.30
2015,08,16,13,05,21.30
2015,08,16,13,06,21.30
2015,08,16,13,07,21.40
2015,08,16,13,08,21.50
2015,08,16,13,09,21.60
2015,08,16,13,10,21.70
2015,08,16,13,11,21.80
2015,08,16,13,12,21.70
2015,08,16,13,13,21.70
2015,08,16,13,14,21.60
2015,08,16,13,15,21.60
2015,08,16,13,16,21.60
2015,08,16,13,17,21.60
2015,08,16,13,18,21.60
2015,08,16,13,19,21.60
2015,08,16,13,20,21.60
2015,08,16,13,21,21.70
2015,08,16,13,22,21.70
2015,08,16,13,23,21.70
2015,08,16,13,24,21.70
2015,08,16,13,25,21.70
2015,08,16,13,26,21.70
2015,08,16,13,27,21.70
2015,08,16,13,28,21.80
2015,08,16,13,29,21.80
2015,08,16,13,30,21.80
2015,08,16,13,31,21.80
2015,08,16,13,32,21.90
2015,08,16,13,33,22.00
2015,08,16,13,34,22.00
2015,08,16,13,35,22.20
2015,08,16,13,36,22.20
2015,08,16,13,37,22.20
2015,08,16,13,38,22.10
2015,08,16,13,39,22.10
2015,08,16,13,40,22.10
2015,08,16,13,41,22.10
2015,08,16,13,42,22.10
2015,08,16,13,43,22.00
2015,08,16,13,44,21.90
2015,08,16,13,45,21.90
2015,08,16,13,46,21.90
2015,08,16,13,47,21.90
2015,08,16,13,48,21.90
2015,08,16,13,49,21.90
2015,08,16,13,50,22.00
2015,08,16,13,51,22.00
2015,08,16,13,52,21.90
2015,08,16,13,53,22.00
2015,08,16,13,54,22.00
2015,08,16,13,55,21.90
2015,08,16,13,56,21.90
2015,08,16,13,57,21.90
2015,08,16,13,58,21.90
2015,08,16,13,59,21.90
2015,08,16,14,00,21.90
2015,08,16,14,01,21.80
2015,08,16,14,02,21.80
2015,08,16,14,03,21.80
2015,08,16,14,04,21.80
2015,08,16,14,05,21.70
2015,08,16,14,06,21.70
2015,08,16,14,07,21.80
2015,08,16,14,08,21.80
2015,08,16,14,09,21.90
2015,08,16,14,10,21.90
2015,08,16,14,11,21.90
2015,08,16,14,12,22.00
2015,08,16,14,13,22.00
2015,08,16,14,14,22.10
2015,08,16,14,15,22.20
2015,08,16,14,16,22.20
2015,08,16,14,17,22.30
2015,08,16,14,18,22.40
2015,08,16,14,19,22.50
2015,08,16,14,20,22.50
2015,08,16,14,21,22.60
2015,08,16,14,22,22.60
2015,08,16,14,23,22.70
2015,08,16,14,24,22.70
2015,08,16,14,25,22.70
2015,08,16,14,26,22.80
2015,08,16,14,27,22.80
2015,08,16,14,28,22.90
2015,08,16,14,29,22.90
2015,08,16,14,30,23.00
2015,08,16,14,31,23.00
2015,08,16,14,32,22.90
2015,08,16,14,33,22.70
2015,08,16,14,34,22.60
2015,08,16,14,35,22.50
2015,08,16,14,36,22.40
2015,08,16,14,37,22.30
2015,08,16,14,38,22.30
2015,08,16,14,39,22.30
2015,08,16,14,40,22.30
2015,08,16,14,41,22.40
2015,08,16,14,42,22.50
2015,08,16,14,43,22.50
2015,08,16,14,44,22.60
2015,08,16,14,45,22.60
2015,08,16,14,46,22.60
2015,08,16,14,47,22.60
2015,08,16,14,48,22.60
2015,08,16,14,49,22.60
2015,08,16,14,50,22.60
2015,08,16,14,51,22.60
2015,08,16,14,52,22.60
2015,08,16,14,53,22.60
2015,08,16,14,54,22.60
2015,08,16,14,55,22.70
2015,08,16,14,56,22.70
2015,08,16,14,57,22.70
2015,08,16,14,58,22.70
2015,08,16,14,59,22.60
2015,08,16,15,00,22.60
2015,08,16,15,01,22.50
2015,08,16,15,02,22.40
2015,08,16,15,03,22.40
2015,08,16,15,04,22.30
2015,08,16,15,05,22.30
2015,08,16,15,06,22.30
2015,08,16,15,07,22.30
2015,08,16,15,08,22.30
2015,08,16,15,09,22.30
2015,08,16,15,10,22.30
2015,08,16,15,11,22.30
2015,08,16,15,12,22.30
2015,08,16,15,13,22.30
2015,08,16,15,14,22.30
2015,08,16,15,15,22.20
2015,08,16,15,16,22.20
2015,08,16,15,17,22.20
2015,08,16,15,18,22.20
2015,08,16,15,19,22.10
2015,08,16,15,20,22.10
2015,08,16,15,21,22.20
2015,08,16,15,22,22.20
2015,08,16,15,23,22.20
2015,08,16,15,24,22.30
2015,08,16,15,25,22.30
2015,08,16,15,26,22.30
2015,08,16,15,27,22.30
2015,08,16,15,28,22.30
2015,08,16,15,29,22.30
2015,08,16,15,30,22.40
2015,08,16,15,31,22.40
2015,08,16,15,32,22.60
2015,08,16,15,33,22.70
2015,08,16,15,34,22.80
2015,08,16,15,35,22.90
2015,08,16,15,36,23.00
2015,08,16,15,37,23.00
2015,08,16,15,38,23.10
2015,08,16,15,39,23.10
2015,08,16,15,40,23.20
2015,08,16,15,41,23.20
2015,08,16,15,42,23.20
2015,08,16,15,43,23.20
2015,08,16,15,44,23.20
2015,08,16,15,45,23.20
2015,08,16,15,46,23.30
2015,08,16,15,47,23.30
2015,08,16,15,48,23.30
2015,08,16,15,49,23.30
2015,08,16,15,50,23.30
2015,08,16,15,51,23.20
2015,08,16,15,52,23.20
2015,08,16,15,53,23.10
2015,08,16,15,54,23.10
2015,08,16,15,55,23.00
2015,08,16,15,56,22.90
2015,08,16,15,57,22.80
2015,08,16,15,58,22.80
2015,08,16,15,59,22.80
2015,08,16,16,00,22.80
2015,08,16,16,01,22.80
2015,08,16,16,02,22.90
2015,08,16,16,03,23.00
2015,08,16,16,04,23.10
2015,08,16,16,05,23.20
2015,08,16,16,06,23.30
2015,08,16,16,07,23.30
2015,08,16,16,08,23.40
2015,08,16,16,09,23.40
2015,08,16,16,10,23.30
2015,08,16,16,11,23.30
2015,08,16,16,12,23.30
2015,08,16,16,13,23.30
2015,08,16,16,14,23.40
2015,08,16,16,15,23.40
2015,08,16,16,16,23.40
2015,08,16,16,17,23.30
2015,08,16,16,18,23.30
2015,08,16,16,19,23.30
2015,08,16,16,20,23.30
2015,08,16,16,21,23.30
2015,08,16,16,22,23.30
2015,08,16,16,23,23.30
2015,08,16,16,24,23.30
2015,08,16,16,25,23.30
2015,08,16,16,26,23.20
2015,08,16,16,27,23.20
2015,08,16,16,28,23.30
2015,08,16,16,29,23.40
2015,08,16,16,30,23.50
2015,08,16,16,31,23.60
2015,08,16,16,32,23.60
2015,08,16,16,33,23.60
2015,08,16,16,34,23.60
2015,08,16,16,35,23.60
2015,08,16,16,36,23.60
2015,08,16,16,37,23.60
2015,08,16,16,38,23.60
2015,08,16,16,39,23.70
2015,08,16,16,40,23.70
2015,08,16,16,41,23.70
2015,08,16,16,42,23.70
2015,08,16,16,43,23.80
2015,08,16,16,44,23.80
2015,08,16,16,45,23.70
2015,08,16,16,46,23.70
2015,08,16,16,47,23.70
2015,08,16,16,48,23.60
2015,08,16,16,49,23.60
2015,08,16,16,50,23.60
2015,08,16,16,51,23.50
2015,08,16,16,52,23.50
2015,08,16,16,53,23.40
2015,08,16,16,54,23.40
2015,08,16,16,55,23.40
2015,08,16,16,56,23.40
2015,08,16,16,57,23.40
2015,08,16,16,58,23.40
2015,08,16,16,59,23.50
2015,08,16,17,00,23.60
2015,08,16,17,01,23.60
2015,08,16,17,02,23.70
2015,08,16,17,03,23.70
2015,08,16,17,04,23.70
2015,08,16,17,05,23.70
2015,08,16,17,06,23.70
2015,08,16,17,07,23.80
2015,08,16,17,08,23.80
2015,08,16,17,09,23.80
2015,08,16,17,10,23.80
2015,08,16,17,11,23.80
2015,08,16,17,12,23.80
2015,08,16,17,13,23.90
2015,08,16,17,14,23.90
2015,08,16,17,15,24.00
2015,08,16,17,16,24.10
2015,08,16,17,17,24.10
2015,08,16,17,18,24.10
2015,08,16,17,19,24.10
2015,08,16,17,20,24.20
2015,08,16,17,21,24.20
2015,08,16,17,22,24.20
2015,08,16,17,23,24.10
2015,08,16,17,24,24.00
2015,08,16,17,25,24.00
2015,08,16,17,26,23.90
2015,08,16,17,27,23.90
2015,08,16,17,28,23.90
2015,08,16,17,29,23.90
2015,08,16,17,30,23.80
2015,08,16,17,31,23.80
2015,08,16,17,32,23.80
2015,08,16,17,33,23.80
2015,08,16,17,34,23.90
2015,08,16,17,35,23.90
2015,08,16,17,36,24.00
2015,08,16,17,37,24.00
2015,08,16,17,38,24.10
2015,08,16,17,39,24.10
2015,08,16,17,40,24.10
2015,08,16,17,41,24.10
2015,08,16,17,42,24.10
2015,08,16,17,43,24.10
2015,08,16,17,44,24.10
2015,08,16,17,45,24.10
2015,08,16,17,46,24.10
2015,08,16,17,47,24.10
2015,08,16,17,48,24.10
2015,08,16,17,49,24.10
2015,08,16,17,50,24.00
2015,08,16,17,51,24.00
2015,08,16,17,52,24.00
2015,08,16,17,53,24.00
2015,08,16,17,54,24.00
2015,08,16,17,55,24.00
2015,08,16,17,56,24.00
2015,08,16,17,57,24.00
2015,08,16,17,58,24.00
2015,08,16,17,59,24.00
2015,08,16,18,00,24.10
2015,08,16,18,01,24.10
2015,08,16,18,02,24.10
2015,08,16,18,03,24.10
2015,08,16,18,04,24.00
2015,08,16,18,05,24.00
2015,08,16,18,06,24.00
2015,08,16,18,07,24.00
2015,08,16,18,08,24.00
2015,08,16,18,09,24.00
2015,08,16,18,10,23.90
2015,08,16,18,11,23.90
2015,08,16,18,12,23.90
2015,08,16,18,13,23.90
2015,08,16,18,14,23.90
2015,08,16,18,15,23.80
2015,08,16,18,16,23.80
2015,08,16,18,17,23.80
2015,08,16,18,18,23.80